Sigfox identifier Datetime Temperature Humidity SNR
003B7D47 2018-10-09 09:15:53 20.7 38 17.5
003B7D47 2018-10-09 08:08:35 20.7 38 19.7
003B7D47 2018-10-09 07:01:17 20.7 38 19.6
003B7D47 2018-10-09 05:54:02 20.7 38 19.5
003B7D47 2018-10-09 04:46:46 20.7 38 19.4
003B7D47 2018-10-09 01:24:57 20.6 37 19.2
003B7D47 2018-10-09 00:17:42 20.6 37 19.1
003B7D47 2018-10-08 23:10:26 20.5 37 19.1
003B7D47 2018-10-08 22:03:11 20.5 37 18.9
003B7D47 2018-10-08 20:55:55 20.5 37 18.8
003B7D47 2018-10-08 19:48:38 20.5 37 18.8
003B7D47 2018-10-08 18:41:23 20.5 37 18.6
003B7D47 2018-10-08 17:34:09 20.5 37 18.5
003B7D47 2018-10-08 16:26:52 20.5 37 18.5
003B7D47 2018-10-08 15:19:39 20.5 37 18.6
003B7D47 2018-10-08 14:12:20 20.5 36 18.8
003B7D47 2018-10-08 13:05:06 20.4 36 18.7
003B7D47 2018-10-08 11:57:50 20.3 35 18.7
003B7D47 2018-10-08 10:50:31 20.3 33 18.6
003B7D47 2018-10-08 09:43:15 20.3 33 18.6
003B7D47 2018-10-08 08:35:53 20.2 33 18.8
003B7D47 2018-10-08 07:28:36 20.3 34 18.7
003B7D47 2018-10-08 06:21:20 20.3 35 18.7
003B7D47 2018-10-08 05:14:05 20.3 35 18.7
003B7D47 2018-10-08 04:06:49 20.3 35 15.5
003B7D47 2018-10-08 02:59:30 20.3 35 15.5
003B7D47 2018-10-08 01:52:11 20.4 36 15.4
003B7D47 2018-10-08 00:44:53 20.4 36 15.3
003B7D47 2018-10-07 23:37:37 20.4 37 14.9
003B7D47 2018-10-07 22:30:20 20.5 37 14.9
003B7D47 2018-10-07 21:23:06 20.5 38 14.8
003B7D47 2018-10-07 20:15:48 20.5 38 14.7
003B7D47 2018-10-07 19:08:35 20.5 38 14.5
003B7D47 2018-10-07 18:01:15 20.5 39 14.8
003B7D47 2018-10-07 16:53:55 20.5 38 15.2
003B7D47 2018-10-07 15:46:40 20.5 38 15.4
003B7D47 2018-10-07 14:39:17 20.5 38 15.3
003B7D47 2018-10-07 13:31:59 20.5 38 15.4
003B7D47 2018-10-07 12:24:40 20.5 38 15.1
003B7D47 2018-10-07 11:17:21 20.5 38 15.2
003B7D47 2018-10-07 10:10:00 20.6 38 14.8
003B7D47 2018-10-07 09:02:41 20.6 39 14.8
003B7D47 2018-10-07 07:55:21 20.7 39 15.1
003B7D47 2018-10-07 06:48:01 20.7 39 15.2
003B7D47 2018-10-07 05:40:40 20.7 39 15.5
003B7D47 2018-10-07 04:33:20 20.7 39 14.9
003B7D47 2018-10-07 03:26:04 20.7 40 15.4
003B7D47 2018-10-07 02:18:45 20.7 40 15.1
003B7D47 2018-10-07 01:11:28 20.7 40 15.6
003B7D47 2018-10-07 00:04:12 20.7 40 15.6
003B7D47 2018-10-06 22:56:50 20.7 40 15.8
003B7D47 2018-10-06 21:49:36 20.8 40 16.3
003B7D47 2018-10-06 20:42:16 20.7 40 16.4
003B7D47 2018-10-06 19:34:59 20.8 40 16.5
003B7D47 2018-10-06 18:27:42 20.8 40 16.6
003B7D47 2018-10-06 17:20:28 20.9 40 16.5
003B7D47 2018-10-06 16:13:06 20.9 40 16.6
003B7D47 2018-10-06 15:05:47 20.9 40 16.7
003B7D47 2018-10-06 13:58:25 20.8 40 16.6
003B7D47 2018-10-06 12:51:09 20.9 40 16.5
003B7D47 2018-10-06 11:43:47 20.9 40 16.4
003B7D47 2018-10-06 10:36:27 20.9 40 16.6
003B7D47 2018-10-06 09:29:09 20.9 40 16.7
003B7D47 2018-10-06 08:21:51 20.9 40 16.9
003B7D47 2018-10-06 07:14:33 20.9 41 16.6
003B7D47 2018-10-06 06:07:15 21 41 16.9
003B7D47 2018-10-06 04:59:57 21.1 41 17.2
003B7D47 2018-10-06 03:52:39 21.1 42 17.1
003B7D47 2018-10-06 02:45:19 21.1 42 17.3
003B7D47 2018-10-06 01:37:59 21.1 42 16.9
003B7D47 2018-10-06 00:30:38 21.1 43 17.3
003B7D47 2018-10-05 23:23:18 21.1 43 16.9
003B7D47 2018-10-05 22:15:59 21.2 44 17.2
003B7D47 2018-10-05 21:08:41 21.3 44 16.6
003B7D47 2018-10-05 20:01:19 21.3 45 16.8
003B7D47 2018-10-05 18:54:02 21.3 45 16.9
003B7D47 2018-10-05 17:46:45 21.4 46 15
003B7D47 2018-10-05 16:39:26 21.5 47 15
003B7D47 2018-10-05 15:32:10 21.5 47 15.5
003B7D47 2018-10-05 14:24:48 21.5 48 13.2
003B7D47 2018-10-05 13:17:30 21.5 50 0